Temp
-9 -9 -11 -11 -12 -13 -14 -13 -15 -10 -12 -12 -13 -14 -15 -15 -16 -16 -17 -16 -16 -14 -14 -13 -13 -13 -11 -10 -9 -9 -8 -7 -5 -3 -1 -1 -0 -1 -1 0 0 2 1 1
-9 -10 -10 -11 -10 -11 -11 -12 -12 -11 -11 -13 -13 -14 -15 -15 -16 -16 -17 -16 -16 -15 -14 -13 -13 -12 -12 -11 -10 -9 -9 -8 -7 -4 -2 -1 -0 -0 -0 0 1 1 1 1
-11 -10 -11 -9 -7 -8 -9 -9 -10 -11 -11 -13 -13 -14 -14 -15 -15 -16 -16 -16 -16 -16 -15 -14 -13 -12 -12 -11 -10 -9 -9 -8 -7 -6 -4 -3 -1 -0 -0 0 1 1 1 0
-13 -12 -14 -7 -8 -8 -9 -9 -10 -10 -12 -13 -13 -13 -14 -14 -15 -15 -16 -16 -16 -16 -16 -15 -14 -13 -12 -12 -11 -10 -9 -9 -8 -6 -6 -5 -3 -1 -0 -0 -0 1 1 0
-15 -16 -10 -8 -7 -8 -10 -8 -10 -11 -12 -13 -13 -13 -14 -14 -14 -15 -15 -16 -16 -16 -16 -15 -15 -14 -13 -12 -12 -11 -10 -9 -9 -8 -6 -5 -4 -3 -2 -1 -0 -0 -1 0
-17 -16 -15 -8 -9 -9 -10 -9 -11 -11 -12 -12 -13 -14 -14 -14 -14 -15 -15 -15 -16 -16 -16 -16 -15 -15 -14 -13 -12 -12 -11 -10 -10 -9 -8 -7 -5 -3 -2 -2 -2 -2 -0 -0
-15 -16 -10 -7 -8 -10 -11 -10 -11 -11 -12 -12 -13 -14 -14 -14 -14 -14 -15 -16 -16 -16 -16 -16 -16 -16 -15 -14 -13 -13 -12 -11 -11 -11 -9 -8 -7 -5 -4 -3 -2 -2 -2 -2
-15 -17 -13 -8 -9 -10 -10 -10 -11 -11 -12 -12 -13 -13 -14 -14 -14 -15 -15 -15 -16 -16 -16 -16 -16 -16 -16 -16 -15 -14 -13 -13 -12 -12 -11 -10 -9 -8 -7 -5 -3 -3 -3 -2
-11 -8 -7 -8 -9 -10 -10 -10 -11 -11 -12 -12 -12 -13 -14 -14 -15 -15 -15 -16 -16 -16 -16 -17 -17 -17 -17 -16 -16 -16 -15 -14 -13 -12 -12 -11 -10 -10 -9 -7 -6 -4 -3 -3
-11 -7 -7 -8 -9 -9 -10 -10 -10 -11 -12 -12 -12 -13 -14 -14 -15 -15 -15 -16 -16 -17 -17 -17 -17 -17 -17 -18 -17 -17 -16 -16 -14 -14 -13 -12 -12 -11 -10 -10 -9 -7 -5 -4
-8 -6 -7 -8 -10 -10 -10 -10 -11 -11 -12 -12 -13 -13 -14 -14 -15 -15 -15 -16 -17 -17 -17 -18 -18 -18 -18 -18 -18 -18 -17 -17 -16 -15 -15 -14 -13 -13 -12 -11 -10 -9 -8 -6
-8 -8 -8 -9 -10 -9 -10 -10 -11 -11 -12 -13 -13 -13 -14 -15 -15 -15 -16 -16 -17 -17 -18 -18 -18 -18 -18 -18 -18 -19 -18 -18 -18 -17 -16 -16 -15 -14 -13 -12 -12 -11 -10 -9
-8 -9 -9 -10 -10 -10 -10 -10 -11 -11 -12 -13 -13 -13 -14 -14 -15 -15 -16 -16 -17 -18 -18 -19 -19 -19 -19 -19 -19 -19 -19 -19 -19 -18 -18 -17 -16 -16 -15 -14 -13 -13 -12 -11
-9 -9 -9 -10 -10 -10 -10 -11 -11 -11 -12 -12 -13 -13 -13 -14 -15 -15 -16 -16 -17 -18 -19 -19 -19 -19 -20 -19 -19 -19 -20 -20 -20 -19 -19 -18 -18 -17 -16 -16 -15 -14 -14 -12
-10 -10 -10 -10 -10 -10 -10 -11 -11 -12 -12 -13 -13 -13 -14 -14 -15 -15 -16 -17 -17 -18 -19 -19 -19 -20 -19 -19 -20 -20 -20 -21 -21 -20 -20 -20 -19 -18 -18 -18 -17 -16 -15 -14
-9 -9 -10 -10 -10 -11 -11 -11 -11 -12 -12 -13 -13 -13 -13 -14 -15 -15 -16 -17 -18 -19 -19 -20 -20 -20 -20 -20 -20 -21 -21 -21 -21 -21 -21 -21 -20 -20 -19 -19 -18 -18 -18 -16
-10 -10 -10 -10 -10 -11 -11 -12 -12 -12 -12 -13 -13 -13 -14 -14 -15 -15 -16 -17 -18 -19 -20 -20 -20 -20 -20 -20 -21 -21 -22 -22 -22 -22 -22 -22 -21 -21 -20 -20 -19 -19 -18 -18
-10 -10 -11 -11 -11 -11 -11 -11 -11 -12 -12 -13 -13 -14 -14 -14 -15 -16 -17 -18 -19 -20 -20 -20 -20 -21 -21 -21 -21 -22 -22 -23 -22 -23 -23 -23 -22 -22 -21 -21 -20 -20 -19 -19
-10 -10 -11 -11 -11 -11 -11 -11 -11 -12 -13 -13 -14 -14 -15 -15 -16 -17 -18 -19 -20 -20 -21 -21 -21 -21 -21 -21 -21 -22 -22 -23 -23 -23 -23 -23 -23 -23 -22 -22 -21 -20 -20 -19
-11 -11 -12 -12 -11 -11 -12 -12 -12 -12 -13 -14 -14 -14 -15 -16 -17 -18 -19 -20 -20 -21 -21 -21 -21 -22 -22 -22 -22 -22 -23 -23 -23 -23 -23 -23 -23 -23 -23 -22 -22 -21 -21 -20
-11 -11 -12 -12 -11 -12 -12 -12 -12 -13 -14 -14 -15 -15 -16 -17 -18 -19 -20 -20 -21 -21 -21 -22 -22 -22 -22 -22 -22 -23 -23 -23 -23 -23 -23 -24 -23 -23 -23 -23 -22 -22 -22 -21
-12 -12 -12 -12 -12 -12 -12 -12 -13 -14 -14 -15 -15 -16 -17 -18 -19 -20 -21 -21 -22 -22 -22 -22 -22 -22 -23 -23 -22 -23 -23 -23 -23 -23 -23 -23 -23 -23 -23 -23 -22 -22 -22 -22
-13 -12 -12 -12 -12 -13 -13 -13 -13 -14 -15 -15 -16 -17 -18 -19 -20 -21 -22 -22 -22 -22 -22 -23 -23 -23 -23 -23 -23 -23 -23 -23 -23 -23 -23 -23 -23 -23 -23 -23 -23 -22 -22 -22
-13 -13 -13 -13 -13 -13 -13 -14 -15 -15 -16 -16 -17 -18 -19 -20 -21 -22 -22 -22 -22 -23 -23 -23 -23 -23 -23 -23 -24 -24 -23 -23 -23 -23 -23 -23 -23 -23 -23 -23 -23 -23 -23 -23
-13 -13 -14 -13 -14 -14 -14 -15 -15 -16 -17 -17 -18 -19 -20 -21 -22 -22 -22 -22 -23 -23 -23 -23 -23 -23 -24 -24 -24 -24 -24 -24 -24 -24 -24 -24 -24 -24 -23 -23 -23 -23 -23 -23
-13 -13 -14 -14 -14 -14 -15 -16 -17 -17 -18 -19 -19 -20 -21 -22 -22 -22 -23 -23 -23 -23 -23 -24 -24 -24 -24 -24 -24 -24 -24 -25 -25 -25 -25 -25 -25 -24 -24 -24 -24 -24 -24 -24
-13 -13 -14 -14 -15 -15 -16 -17 -17 -18 -19 -20 -20 -21 -22 -22 -23 -23 -23 -23 -24 -24 -24 -24 -24 -25 -25 -25 -25 -25 -25 -25 -25 -25 -25 -25 -25 -25 -25 -25 -25 -25 -25 -24
Height
3022 3018 3014 3010 3009 3007 3004 3002 3000 2986 2982 2978 2973 2968 2962 2956 2950 2944 2938 2934 2929 2927 2925 2924 2923 2921 2920 2921 2921 2919 2921 2924 2929 2934 2940 2949 2955 2962 2967 2972 2977 2980 2984 2989
3013 3011 3008 3002 3000 2999 2997 2994 2989 2985 2979 2978 2972 2966 2960 2954 2948 2942 2937 2932 2928 2925 2923 2922 2921 2920 2919 2919 2919 2918 2919 2922 2923 2927 2932 2939 2948 2954 2959 2963 2970 2978 2982 2985
3010 3008 3001 2995 2994 2993 2992 2989 2987 2982 2979 2975 2970 2964 2958 2953 2947 2941 2936 2931 2927 2923 2921 2920 2919 2919 2918 2917 2917 2917 2917 2919 2921 2923 2926 2932 2938 2944 2951 2955 2965 2970 2974 2976
3011 3006 3003 2990 2989 2989 2986 2984 2981 2979 2976 2972 2967 2962 2956 2951 2945 2940 2935 2930 2926 2923 2920 2918 2917 2917 2916 2915 2915 2915 2912 2914 2917 2919 2920 2924 2929 2935 2941 2948 2955 2959 2965 2970
3014 3008 2994 2984 2986 2986 2983 2980 2978 2974 2970 2966 2962 2958 2955 2949 2945 2940 2934 2929 2924 2921 2918 2915 2914 2913 2913 2913 2912 2914 2915 2912 2911 2912 2915 2918 2923 2927 2932 2939 2945 2950 2957 2966
3014 3012 2999 2984 2983 2982 2979 2974 2972 2969 2966 2961 2958 2954 2951 2947 2943 2938 2933 2927 2922 2919 2916 2913 2911 2910 2910 2910 2910 2910 2911 2912 2913 2913 2914 2915 2919 2923 2927 2933 2938 2943 2948 2958
3008 3007 2987 2982 2981 2979 2978 2976 2969 2966 2962 2959 2955 2952 2947 2943 2940 2936 2931 2928 2923 2918 2914 2912 2909 2907 2906 2906 2906 2908 2907 2908 2910 2910 2911 2912 2913 2916 2921 2925 2930 2936 2942 2948
3001 2999 2985 2980 2979 2978 2974 2968 2965 2962 2958 2955 2951 2947 2942 2938 2935 2933 2930 2926 2922 2917 2913 2909 2907 2904 2903 2902 2902 2903 2905 2904 2905 2908 2908 2909 2910 2910 2913 2917 2921 2928 2934 2939
2995 2983 2978 2977 2975 2972 2967 2963 2960 2957 2954 2951 2948 2944 2940 2936 2932 2929 2926 2923 2920 2916 2911 2907 2904 2902 2899 2899 2899 2899 2900 2901 2901 2901 2903 2904 2906 2906 2908 2910 2913 2918 2923 2930
2981 2975 2973 2972 2970 2966 2962 2959 2956 2953 2950 2947 2943 2939 2935 2931 2928 2925 2922 2919 2915 2912 2908 2904 2901 2898 2896 2895 2894 2895 2895 2896 2897 2897 2897 2900 2901 2903 2904 2905 2907 2910 2914 2920
2969 2969 2968 2967 2964 2960 2956 2953 2950 2946 2944 2941 2937 2934 2929 2926 2922 2919 2916 2914 2911 2908 2904 2901 2897 2895 2892 2890 2890 2889 2890 2890 2892 2893 2893 2894 2897 2899 2900 2900 2901 2903 2907 2911
2962 2965 2964 2962 2957 2953 2950 2946 2943 2941 2939 2935 2931 2928 2923 2919 2916 2913 2910 2908 2905 2902 2899 2896 2893 2890 2888 2886 2885 2885 2885 2886 2886 2887 2889 2889 2890 2891 2893 2894 2896 2898 2902 2904
2958 2959 2959 2955 2952 2948 2944 2940 2937 2934 2931 2928 2924 2921 2916 2912 2909 2906 2904 2901 2899 2896 2894 2891 2888 2885 2882 2881 2880 2879 2880 2881 2882 2882 2883 2884 2885 2886 2886 2889 2890 2893 2895 2898
2954 2954 2953 2948 2946 2942 2937 2933 2930 2927 2923 2920 2917 2914 2909 2905 2902 2899 2896 2894 2892 2889 2887 2884 2882 2879 2875 2875 2875 2875 2875 2876 2877 2878 2878 2879 2880 2881 2880 2882 2885 2886 2887 2891
2950 2948 2945 2941 2939 2934 2930 2925 2921 2919 2916 2913 2909 2906 2901 2898 2895 2892 2889 2886 2884 2882 2879 2877 2875 2872 2869 2869 2869 2870 2870 2871 2872 2873 2875 2876 2876 2877 2878 2878 2878 2879 2881 2882
2944 2940 2937 2935 2932 2927 2922 2917 2913 2911 2908 2906 2902 2898 2894 2890 2887 2884 2881 2879 2877 2874 2872 2870 2868 2865 2864 2863 2863 2864 2865 2866 2868 2869 2870 2871 2872 2872 2873 2873 2874 2875 2875 2876
2938 2936 2932 2930 2924 2919 2914 2909 2905 2903 2900 2897 2894 2890 2886 2882 2879 2877 2874 2872 2870 2867 2865 2862 2860 2858 2857 2857 2858 2858 2860 2862 2863 2865 2866 2866 2867 2868 2868 2869 2869 2870 2871 2872
2930 2927 2924 2919 2915 2909 2905 2900 2897 2895 2892 2888 2885 2882 2878 2875 2872 2869 2867 2865 2863 2860 2857 2854 2852 2851 2851 2851 2852 2853 2855 2857 2858 2860 2861 2862 2863 2863 2863 2863 2864 2864 2865 2865
2925 2920 2915 2910 2905 2899 2895 2892 2889 2886 2883 2879 2876 2873 2870 2867 2864 2862 2859 2857 2855 2853 2850 2847 2845 2845 2846 2846 2846 2848 2850 2851 2853 2854 2856 2857 2857 2858 2857 2857 2857 2857 2858 2858
2917 2911 2905 2900 2896 2890 2886 2883 2880 2877 2873 2870 2868 2864 2862 2859 2857 2854 2852 2850 2848 2846 2843 2840 2840 2840 2840 2840 2841 2843 2844 2846 2847 2849 2850 2850 2851 2851 2851 2851 2851 2851 2851 2852
2907 2900 2895 2890 2885 2881 2877 2875 2872 2868 2865 2862 2860 2857 2854 2851 2848 2846 2844 2842 2840 2838 2836 2835 2835 2835 2835 2836 2836 2838 2839 2840 2842 2843 2844 2844 2844 2844 2845 2845 2845 2846 2846 2847
2896 2890 2884 2879 2875 2871 2868 2866 2863 2860 2857 2854 2852 2850 2847 2844 2841 2839 2837 2836 2834 2832 2831 2830 2831 2831 2831 2831 2832 2833 2834 2835 2836 2836 2837 2838 2838 2838 2838 2838 2839 2840 2841 2842
2884 2878 2873 2869 2865 2862 2860 2858 2855 2852 2849 2847 2845 2843 2840 2837 2835 2833 2832 2830 2829 2828 2827 2827 2826 2826 2826 2827 2828 2829 2829 2829 2830 2830 2831 2831 2831 2832 2832 2832 2832 2833 2833 2834
2873 2868 2863 2859 2856 2854 2852 2849 2846 2844 2842 2840 2838 2836 2833 2831 2829 2828 2827 2825 2825 2824 2824 2823 2822 2822 2823 2823 2823 2823 2824 2824 2824 2824 2824 2823 2823 2824 2824 2825 2825 2825 2826 2826
2861 2857 2854 2851 2849 2847 2844 2841 2839 2837 2836 2833 2831 2829 2827 2825 2824 2823 2822 2822 2821 2821 2821 2820 2819 2819 2819 2818 2818 2818 2817 2817 2817 2816 2816 2815 2815 2814 2815 2815 2816 2816 2817 2817
2851 2848 2845 2844 2842 2840 2837 2835 2833 2832 2829 2827 2825 2823 2822 2821 2820 2820 2819 2819 2819 2819 2818 2817 2816 2815 2815 2814 2813 2812 2811 2810 2810 2808 2807 2806 2805 2805 2804 2804 2805 2805 2806 2807
2844 2841 2839 2838 2835 2833 2831 2829 2828 2826 2824 2822 2820 2819 2818 2818 2817 2817 2817 2817 2816 2815 2815 2814 2813 2812 2811 2810 2809 2808 2806 2805 2804 2802 2800 2798 2796 2795 2794 2793 2793 2793 2794 2795
Wind_Speed
25 31 27 24 20 22 26 27 19 28 34 31 29 29 26 28 26 29 31 27 22 16 14 14 15 12 8 6 10 15 12 16 24 31 36 35 30 33 30 41 39 34 42 48
32 11 16 26 25 22 22 25 30 28 31 24 28 27 26 26 27 28 30 31 24 19 14 13 14 14 11 7 9 12 13 12 18 28 34 35 34 32 38 32 37 38 48 50
10 16 31 13 2 7 14 20 23 26 22 24 26 25 26 26 27 29 29 31 27 22 17 13 12 13 13 10 9 12 13 12 15 23 31 34 36 33 32 33 35 47 35 36
15 16 3 6 9 14 17 21 20 17 19 22 25 25 26 27 28 28 29 30 28 23 19 15 13 12 14 13 11 11 14 13 14 20 25 29 34 33 32 36 35 39 35 45
6 11 27 15 6 8 15 24 8 21 24 24 26 27 24 28 28 28 29 30 30 25 21 17 13 13 13 13 14 13 14 16 13 14 21 27 29 35 31 36 40 38 41 42
6 4 5 5 8 13 18 9 19 25 26 28 28 29 27 28 29 29 29 30 30 28 24 19 16 14 14 14 14 15 15 15 15 14 17 23 30 32 33 32 35 39 38 52
20 11 15 15 10 11 6 11 26 28 27 27 28 29 29 28 28 29 29 28 28 27 25 21 17 15 15 16 15 14 17 17 16 15 16 19 23 29 32 34 34 34 36 39
5 10 10 9 17 15 27 34 32 27 26 28 30 29 30 29 28 28 28 27 27 27 26 23 19 16 16 16 17 16 15 17 19 17 17 18 19 22 29 34 37 38 36 36
14 18 30 21 22 26 27 25 22 22 25 28 30 30 28 26 26 26 28 27 26 26 26 24 21 17 16 16 17 17 16 16 18 21 18 19 19 18 21 28 35 39 41 39
34 5 18 19 18 22 24 22 21 22 26 29 32 31 29 27 25 25 26 27 26 26 25 24 23 19 18 17 18 17 18 17 17 18 21 19 21 19 21 22 24 31 38 42
36 12 11 14 22 28 23 22 24 26 27 29 33 31 32 28 26 25 25 26 26 25 25 24 24 22 19 18 18 19 18 18 17 17 18 20 20 20 21 21 22 24 28 35
27 13 17 24 26 26 25 25 26 27 26 28 31 31 33 28 27 26 25 25 26 25 25 25 25 24 21 20 19 19 19 18 18 17 17 18 19 20 21 23 23 25 24 27
11 12 16 18 24 26 27 28 28 28 27 28 29 32 32 26 26 27 26 26 25 24 25 26 25 24 24 20 20 20 19 19 18 18 17 16 17 17 20 21 23 23 26 27
12 10 17 23 27 29 29 28 28 27 27 27 28 32 31 26 25 26 26 26 25 25 25 27 26 24 25 21 19 20 20 18 18 17 17 17 17 17 17 19 20 22 23 25
4 16 25 32 35 35 34 31 28 26 27 27 29 32 30 26 24 25 26 25 25 25 26 27 26 24 25 20 18 19 20 19 18 18 17 16 16 16 16 16 18 20 21 22
14 22 32 37 39 37 36 33 29 26 27 26 28 31 29 26 24 25 26 26 25 25 27 27 26 24 22 19 18 18 20 20 18 17 17 16 16 16 16 16 16 16 18 20
24 26 37 41 42 38 35 33 28 27 27 28 29 31 29 26 24 25 26 25 25 26 26 27 25 22 19 18 17 18 20 20 19 17 17 17 17 16 16 17 17 17 17 18
35 43 47 44 47 38 34 29 26 28 29 29 30 31 29 26 25 26 25 24 24 25 26 26 23 18 17 17 16 19 20 20 19 18 17 17 17 18 19 18 19 19 19 19
44 51 48 46 43 37 32 27 27 29 30 30 30 30 27 25 26 25 24 24 24 24 25 23 19 16 16 16 16 18 19 20 20 19 19 18 18 18 18 19 19 20 21 21
45 46 45 40 37 36 29 26 28 30 29 29 30 29 26 26 26 25 23 23 24 23 22 19 17 15 14 14 16 18 19 20 21 22 22 21 21 20 19 18 17 17 19 20
47 48 44 41 38 33 26 26 28 29 27 28 28 25 25 26 25 24 22 22 22 22 18 15 14 14 13 13 15 16 19 20 21 22 23 23 22 21 19 17 16 15 16 17
49 48 43 40 36 29 24 26 28 28 26 27 23 24 25 24 23 22 21 20 19 17 15 14 13 12 13 13 14 14 16 19 20 21 21 21 21 20 19 18 18 17 17 17
50 48 43 38 32 25 24 26 27 26 24 21 22 24 23 22 20 19 19 18 16 13 11 12 13 13 13 14 13 13 15 16 17 18 19 20 21 21 21 21 21 21 21 20
52 46 38 34 26 23 25 26 25 22 19 21 23 23 21 20 17 16 14 13 12 10 10 11 12 12 11 13 14 15 17 19 20 22 23 24 24 24 24 24 24 23 23 23
47 37 33 27 22 23 26 24 20 17 19 22 21 20 18 16 15 13 10 9 8 8 9 10 11 12 13 14 16 17 19 20 21 24 25 25 26 27 27 27 27 26 27 27
32 31 26 21 22 25 22 18 16 18 20 20 19 17 15 12 10 8 7 7 8 9 10 11 11 12 13 14 15 17 18 20 22 24 26 27 28 29 30 30 30 30 30 30
27 22 18 21 25 20 16 14 17 19 19 18 15 13 10 8 6 6 6 7 8 8 9 10 10 10 10 10 11 12 13 14 16 17 20 22 25 27 29 31 32 32 32 32
Wind_Direction
299 307 296 288 283 282 269 276 261 299 305 333 337 340 347 348 350 357 356 353 349 338 324 328 336 329 306 260 244 246 238 219 220 216 211 219 224 218 226 226 238 235 247 218
308 309 303 295 296 281 279 279 284 298 305 332 337 342 348 350 351 354 356 355 352 345 327 316 323 328 313 280 246 247 245 220 218 218 211 212 222 221 222 221 220 221 218 209
289 308 308 295 226 268 291 300 305 300 318 321 338 346 348 353 353 354 354 353 353 348 335 314 307 314 320 296 261 247 248 234 215 216 213 214 215 220 220 223 229 213 224 202
292 324 319 222 290 307 305 315 316 319 326 329 336 346 351 353 354 352 352 352 353 348 337 322 304 302 311 310 283 255 254 246 225 213 218 217 219 217 215 212 221 232 229 218
282 301 292 302 310 284 311 328 333 337 341 336 336 341 352 354 351 350 351 351 350 349 342 328 309 290 291 300 297 272 252 253 241 220 215 214 220 220 218 215 217 218 218 227
263 272 256 267 299 311 319 305 338 341 341 339 335 332 345 350 351 349 350 349 349 346 343 332 316 297 283 282 289 286 265 253 250 226 216 209 206 205 207 215 220 225 222 224
253 251 274 289 309 319 314 313 325 329 334 339 334 328 333 340 347 347 346 345 344 343 341 334 320 302 287 278 276 282 284 264 253 246 220 218 204 200 200 204 206 215 222 227
234 225 276 331 321 304 309 309 311 310 323 332 335 333 326 331 338 340 339 340 342 342 340 334 325 309 291 281 275 272 275 280 264 248 238 223 218 199 194 191 191 198 205 211
266 268 289 306 319 309 308 309 307 309 317 323 327 332 327 323 326 330 333 334 336 338 337 333 326 313 296 283 277 273 270 271 278 267 249 240 234 225 208 198 193 192 196 205
292 334 301 304 317 321 306 302 299 304 312 317 321 325 326 321 320 322 325 327 329 331 334 330 324 312 297 284 276 272 270 267 268 274 271 249 245 243 232 218 209 202 203 206
294 330 304 313 318 317 307 300 300 303 307 311 315 321 321 320 315 318 320 320 321 324 326 327 322 313 297 285 275 272 268 267 264 267 272 273 254 248 245 238 229 218 212 208
278 280 302 319 317 315 309 304 301 299 300 304 311 318 317 315 310 312 315 314 315 317 318 321 319 312 299 283 275 268 267 266 265 265 264 269 271 258 250 247 243 237 230 221
246 259 319 331 331 321 312 302 302 303 300 302 306 317 319 313 305 306 309 307 310 309 310 313 315 311 296 282 272 268 263 263 263 261 264 265 265 269 263 250 251 246 244 240
234 262 345 353 342 329 318 308 300 303 301 301 304 313 317 312 303 303 301 304 306 304 305 308 313 308 291 281 269 264 261 259 260 259 260 260 262 264 267 266 256 252 250 245
274 341 349 348 342 331 321 315 303 302 299 302 307 312 314 310 305 300 299 302 301 300 300 306 309 301 288 277 268 259 256 255 255 258 259 259 259 259 260 262 266 263 254 251
308 333 340 337 333 328 319 313 305 299 298 300 308 314 313 309 303 300 300 299 298 296 298 304 305 296 285 273 263 256 250 250 252 253 256 257 258 260 262 261 261 263 267 262
332 322 328 326 328 325 318 309 304 299 298 298 306 315 313 307 303 300 299 297 294 294 298 303 302 293 276 268 258 248 244 245 250 251 254 258 260 261 261 262 263 261 259 259
328 325 325 320 323 319 317 309 304 300 299 299 303 313 310 303 301 301 297 294 293 295 299 301 296 284 269 263 254 245 240 241 247 248 250 257 263 268 269 266 264 262 261 259
316 317 316 315 318 315 311 304 305 302 299 298 303 310 305 301 302 299 296 293 292 296 299 296 291 276 265 260 251 244 241 242 245 250 256 262 268 269 271 271 269 265 261 259
322 318 316 316 315 313 304 299 305 305 300 299 304 306 301 301 301 297 295 294 296 298 298 293 285 270 262 258 252 246 243 243 246 250 257 264 271 275 276 273 268 265 263 259
320 319 311 311 311 308 296 296 304 304 301 300 303 300 300 302 300 297 295 297 299 299 296 288 276 266 260 256 253 247 247 247 249 254 260 266 271 273 271 267 265 262 260 259
320 319 314 312 309 301 290 299 304 303 300 300 299 298 300 300 298 296 296 298 297 294 291 284 272 262 262 259 256 255 251 254 257 260 263 265 267 270 271 270 267 261 257 257
318 317 312 310 306 294 294 301 303 301 298 297 297 300 301 299 297 297 296 296 293 293 289 276 270 264 260 264 265 262 262 262 261 261 262 262 263 263 264 266 266 266 264 260
314 312 310 309 300 293 299 303 302 297 297 298 301 302 301 299 297 295 292 290 291 293 281 275 273 275 279 274 268 265 264 265 267 269 269 269 269 269 269 267 267 265 263 261
309 308 308 304 296 299 303 301 296 297 299 302 303 302 299 298 295 293 291 289 291 289 283 284 285 288 280 278 278 278 277 276 274 273 273 273 272 271 269 267 264 262 260 258
307 307 303 296 298 303 300 295 298 300 304 304 302 299 297 292 286 286 287 292 292 290 291 292 292 291 289 287 286 285 284 283 281 280 279 278 276 274 272 269 266 263 261 258
310 306 299 299 303 300 296 297 302 306 305 302 297 295 288 280 275 284 292 294 295 299 302 303 304 304 303 304 305 306 305 303 300 296 292 287 283 278 273 269 266 264 261 259